Location: Newark
(48.4472°N, 1.4892°E)
Time: 03:31:30
(UTC+00:00)

Transit 4A - Pass Details

Date: 01 December 2019
Orbit: 870 x 975 km, 66.8° (Epoch: 09 December)

Event Time Altitude Azimuth Distance (km) Brightness Sun altitude
Rises 20:32:04 0° 245° (WSW) 3,610 11.5 -43.8°
Reaches altitude 10° 20:34:52 10° 254° (WSW) 2,652 10.7 -44.3°
Enters shadow 20:36:20 17° 263° (W) 2,191 10.2 -44.5°
